APJ135 RJBB-RJSS

Flight info

Callsign APJ135
Flight time 0h 54m
Altitude 35000
Route KCC HEIKE Y15 OWLET
Aircraft A20N/M-SDE2E3FGHIRWXY/LB1

Departure

Time 2026-04-23 09:06
Airport Kansai International Airport (RJBB)

Arrival

Time 2026-04-23 10:00
Airport Sendai Airport (RJSS)
Time Latitude Longitude Altitude Speed Heading
2026-04-23 08:48 34.43745 135.22878 29 ft 0 kts 58°
2026-04-23 08:53 34.43741 135.22869 2 ft 2 kts 57°
2026-04-23 08:53 34.43733 135.22855 30 ft 2 kts 58°
2026-04-23 08:53 34.43726 135.22841 31 ft 2 kts 57°
2026-04-23 08:54 34.43718 135.22827 32 ft 2 kts 56°
2026-04-23 08:54 34.43711 135.22814 32 ft 2 kts 53°
2026-04-23 08:54 34.43703 135.22802 32 ft 2 kts 46°
2026-04-23 08:54 34.43696 135.22795 32 ft 1 kts 26°
2026-04-23 08:55 34.43690 135.22792 31 ft 1 kts 356°
2026-04-23 08:55 34.43684 135.22794 31 ft 1 kts 335°
2026-04-23 08:55 34.43679 135.22797 32 ft 1 kts 326°
2026-04-23 08:55 34.43675 135.22801 32 ft 1 kts 322°
2026-04-23 08:56 34.43674 135.22802 32 ft 0 kts 322°
2026-04-23 09:00 34.43682 135.22794 32 ft 4 kts 322°
2026-04-23 09:00 34.43716 135.22762 31 ft 9 kts 322°
2026-04-23 09:00 34.43769 135.22703 33 ft 12 kts 296°
2026-04-23 09:01 34.43726 135.22604 33 ft 16 kts 230°
2026-04-23 09:01 34.43701 135.22496 31 ft 14 kts 316°
2026-04-23 09:01 34.43780 135.22416 35 ft 15 kts 320°
2026-04-23 09:01 34.43758 135.22306 34 ft 18 kts 231°
2026-04-23 09:02 34.43667 135.22170 31 ft 24 kts 231°
2026-04-23 09:02 34.43556 135.22006 31 ft 26 kts 230°
2026-04-23 09:02 34.43450 135.21848 32 ft 21 kts 233°
2026-04-23 09:02 34.43366 135.21722 33 ft 18 kts 230°
2026-04-23 09:03 34.43292 135.21611 34 ft 18 kts 230°
2026-04-23 09:03 34.43208 135.21486 34 ft 21 kts 231°
2026-04-23 09:03 34.43104 135.21331 30 ft 26 kts 230°
2026-04-23 09:03 34.42981 135.21151 27 ft 29 kts 231°
2026-04-23 09:04 34.42858 135.20964 28 ft 25 kts 230°
2026-04-23 09:04 34.42751 135.20797 28 ft 22 kts 254°
2026-04-23 09:04 34.42821 135.20677 29 ft 15 kts 320°
2026-04-23 09:04 34.42893 135.20673 26 ft 9 kts 41°
2026-04-23 09:05 34.42905 135.20691 28 ft 5 kts 52°
2026-04-23 09:05 34.43031 135.20881 26 ft 62 kts 50°
2026-04-23 09:05 34.43456 135.21508 32 ft 128 kts 51°
2026-04-23 09:05 34.44071 135.22428 418 ft 147 kts 50°
2026-04-23 09:06 34.44783 135.23371 1045 ft 155 kts 40°
2026-04-23 09:06 34.45697 135.23922 1967 ft 146 kts 26°
2026-04-23 09:06 34.46751 135.24410 2522 ft 177 kts 25°
2026-04-23 09:06 34.48018 135.25014 2807 ft 218 kts 25°
2026-04-23 09:07 34.49518 135.25762 3331 ft 245 kts 26°
2026-04-23 09:07 34.51122 135.26580 4208 ft 255 kts 27°
2026-04-23 09:07 34.52799 135.27446 5009 ft 268 kts 26°
2026-04-23 09:07 34.54534 135.28370 5879 ft 277 kts 30°
2026-04-23 09:08 34.56078 135.29799 6637 ft 285 kts 45°
2026-04-23 09:08 34.57557 135.31453 7414 ft 295 kts 45°
2026-04-23 09:08 34.59065 135.33207 8269 ft 303 kts 45°
2026-04-23 09:08 34.60601 135.34996 9187 ft 310 kts 44°
2026-04-23 09:09 34.62186 135.36833 9993 ft 319 kts 44°
2026-04-23 09:09 34.63832 135.38734 10541 ft 338 kts 44°
2026-04-23 09:09 34.65588 135.40759 11114 ft 354 kts 43°
2026-04-23 09:09 34.67397 135.42843 11876 ft 362 kts 43°
2026-04-23 09:10 34.69238 135.44965 12709 ft 368 kts 42°
2026-04-23 09:10 34.73019 135.49323 14208 ft 381 kts 41°
2026-04-23 09:10 34.74948 135.51550 14899 ft 386 kts 41°
2026-04-23 09:11 34.76912 135.53818 15582 ft 392 kts 41°
2026-04-23 09:11 34.78789 135.56257 16320 ft 398 kts 51°
2026-04-23 09:11 34.80169 135.59199 17009 ft 405 kts 70°
2026-04-23 09:11 34.80953 135.62507 17725 ft 410 kts 78°
2026-04-23 09:12 34.81564 135.65921 18373 ft 416 kts 79°
2026-04-23 09:12 34.82157 135.69384 19026 ft 420 kts 79°
2026-04-23 09:12 34.82758 135.72887 19578 ft 425 kts 79°
2026-04-23 09:12 34.83382 135.76425 20163 ft 430 kts 78°
2026-04-23 09:13 34.84030 135.79998 20769 ft 434 kts 78°
2026-04-23 09:13 34.84689 135.83603 21352 ft 439 kts 78°
2026-04-23 09:13 34.85356 135.87254 21900 ft 444 kts 78°
2026-04-23 09:13 34.86014 135.90861 22477 ft 447 kts 78°
2026-04-23 09:14 34.86705 135.94647 23056 ft 450 kts 78°
2026-04-23 09:14 34.87382 135.98367 23547 ft 454 kts 78°
2026-04-23 09:14 34.88081 136.02129 23986 ft 457 kts 76°
2026-04-23 09:14 34.89079 136.05757 24420 ft 459 kts 65°
2026-04-23 09:15 34.90493 136.09258 24877 ft 462 kts 60°
2026-04-23 09:15 34.92015 136.12707 25339 ft 464 kts 60°
2026-04-23 09:15 34.93565 136.16175 25787 ft 467 kts 60°
2026-04-23 09:15 34.95122 136.19669 26222 ft 470 kts 60°
2026-04-23 09:16 34.96686 136.23193 26649 ft 473 kts 60°
2026-04-23 09:16 34.98248 136.26723 27066 ft 476 kts 60°
2026-04-23 09:16 34.99822 136.30291 27474 ft 479 kts 60°
2026-04-23 09:16 35.01373 136.33813 27868 ft 482 kts 60°
2026-04-23 09:17 35.02958 136.37416 28225 ft 485 kts 60°
2026-04-23 09:17 35.04556 136.41053 28569 ft 487 kts 60°
2026-04-23 09:17 35.06160 136.44709 28935 ft 490 kts 60°
2026-04-23 09:17 35.07775 136.48392 29261 ft 492 kts 60°
2026-04-23 09:18 35.09393 136.52087 29603 ft 495 kts 60°
2026-04-23 09:18 35.11021 136.55809 29931 ft 498 kts 60°
2026-04-23 09:18 35.12654 136.59546 30210 ft 501 kts 60°
2026-04-23 09:18 35.14298 136.63315 30511 ft 504 kts 60°
2026-04-23 09:19 35.15948 136.67101 30809 ft 506 kts 61°
2026-04-23 09:19 35.17606 136.70909 31107 ft 508 kts 61°
2026-04-23 09:19 35.19269 136.74733 31411 ft 510 kts 61°
2026-04-23 09:19 35.20933 136.78564 31790 ft 510 kts 61°
2026-04-23 09:20 35.22586 136.82374 32195 ft 509 kts 61°
2026-04-23 09:20 35.24247 136.86207 32574 ft 508 kts 61°
2026-04-23 09:20 35.25946 136.89990 32937 ft 507 kts 56°
2026-04-23 09:20 35.28061 136.93430 33292 ft 504 kts 47°
2026-04-23 09:21 35.30372 136.96626 33664 ft 502 kts 44°
2026-04-23 09:21 35.32779 136.99727 33989 ft 501 kts 43°
2026-04-23 09:21 35.35216 137.02769 34286 ft 501 kts 42°
2026-04-23 09:21 35.37667 137.05808 34589 ft 500 kts 42°
2026-04-23 09:22 35.40112 137.08854 34776 ft 501 kts 42°
2026-04-23 09:22 35.44876 137.14870 34810 ft 490 kts 43°
2026-04-23 09:23 35.49583 137.20882 34816 ft 488 kts 43°
2026-04-23 09:23 35.54284 137.26914 34822 ft 489 kts 43°
2026-04-23 09:24 35.58991 137.32964 34828 ft 490 kts 43°
2026-04-23 09:24 35.63703 137.39030 34837 ft 491 kts 43°
2026-04-23 09:25 35.68420 137.45113 34849 ft 492 kts 43°
2026-04-23 09:25 35.73113 137.51175 34854 ft 492 kts 43°
2026-04-23 09:26 35.77848 137.57302 34867 ft 493 kts 43°
2026-04-23 09:26 35.82583 137.63440 34867 ft 494 kts 43°
2026-04-23 09:27 35.87323 137.69599 34896 ft 496 kts 43°
2026-04-23 09:27 35.92072 137.75778 34912 ft 497 kts 43°
2026-04-23 09:28 35.96825 137.81977 34925 ft 497 kts 43°
2026-04-23 09:28 36.01583 137.88191 34934 ft 498 kts 43°
2026-04-23 09:29 36.06338 137.94415 34943 ft 498 kts 43°
2026-04-23 09:29 36.11096 138.00652 34947 ft 499 kts 44°
2026-04-23 09:30 36.15864 138.06915 34944 ft 500 kts 44°
2026-04-23 09:30 36.20605 138.13157 34948 ft 501 kts 44°
2026-04-23 09:31 36.25376 138.19448 34955 ft 502 kts 44°
2026-04-23 09:31 36.30159 138.25767 34952 ft 504 kts 44°
2026-04-23 09:32 36.34958 138.32120 34958 ft 505 kts 44°
2026-04-23 09:32 36.39771 138.38504 34961 ft 507 kts 44°
2026-04-23 09:33 36.44588 138.44906 34959 ft 507 kts 44°
2026-04-23 09:33 36.49411 138.51326 34965 ft 509 kts 44°
2026-04-23 09:34 36.54248 138.57781 34963 ft 511 kts 44°
2026-04-23 09:34 36.59096 138.64261 34968 ft 512 kts 44°
2026-04-23 09:35 36.63137 138.69674 34967 ft 513 kts 44°
2026-04-23 09:35 36.68756 138.77212 34963 ft 513 kts 44°
2026-04-23 09:36 36.73636 138.83774 34962 ft 514 kts 44°
2026-04-23 09:36 36.77709 138.89263 34961 ft 515 kts 44°
2026-04-23 09:37 36.82546 138.95792 34964 ft 515 kts 44°
2026-04-23 09:37 36.87403 139.02361 34960 ft 516 kts 44°
2026-04-23 09:38 36.92273 139.08960 34955 ft 517 kts 44°
2026-04-23 09:38 36.97154 139.15589 34952 ft 517 kts 44°
2026-04-23 09:39 37.02030 139.22225 34967 ft 518 kts 44°
2026-04-23 09:39 37.06935 139.28911 34954 ft 526 kts 44°
2026-04-23 09:40 37.11911 139.35706 34956 ft 530 kts 44°
2026-04-23 09:40 37.16886 139.42519 34947 ft 530 kts 44°
2026-04-23 09:41 37.21864 139.49352 34955 ft 531 kts 44°
2026-04-23 09:41 37.26816 139.56166 34950 ft 523 kts 44°
2026-04-23 09:41 37.29254 139.59527 34836 ft 519 kts 44°
2026-04-23 09:42 37.31692 139.62888 34147 ft 523 kts 44°
2026-04-23 09:42 37.34169 139.66299 33154 ft 532 kts 44°
2026-04-23 09:42 37.36673 139.69751 32312 ft 536 kts 44°
2026-04-23 09:42 37.39171 139.73231 31746 ft 536 kts 47°
2026-04-23 09:43 37.41388 139.76977 31289 ft 533 kts 52°
2026-04-23 09:43 37.43498 139.80795 30740 ft 529 kts 54°
2026-04-23 09:43 37.45499 139.84593 30215 ft 526 kts 55°
2026-04-23 09:43 37.47478 139.88438 29688 ft 522 kts 56°
2026-04-23 09:44 37.49435 139.92263 29152 ft 516 kts 56°
2026-04-23 09:44 37.51362 139.96024 28659 ft 510 kts 56°
2026-04-23 09:44 37.53297 139.99783 28159 ft 505 kts 55°
2026-04-23 09:44 37.55198 140.03463 27652 ft 500 kts 55°
2026-04-23 09:45 37.57093 140.07123 27179 ft 495 kts 55°
2026-04-23 09:45 37.58969 140.10743 26684 ft 490 kts 55°
2026-04-23 09:45 37.60823 140.14321 26178 ft 485 kts 55°
2026-04-23 09:45 37.62658 140.17863 25756 ft 480 kts 55°
2026-04-23 09:46 37.64465 140.21357 25311 ft 475 kts 55°
2026-04-23 09:46 37.66264 140.24838 24832 ft 471 kts 55°
2026-04-23 09:46 37.68043 140.28285 24411 ft 466 kts 55°
2026-04-23 09:46 37.69798 140.31690 23965 ft 462 kts 55°
2026-04-23 09:47 37.71546 140.35086 23484 ft 460 kts 56°
2026-04-23 09:47 37.73280 140.38460 23003 ft 454 kts 56°
2026-04-23 09:47 37.74988 140.41785 22513 ft 448 kts 56°
2026-04-23 09:47 37.76655 140.45098 21992 ft 443 kts 60°
2026-04-23 09:48 37.77707 140.48707 21219 ft 435 kts 81°
2026-04-23 09:48 37.78049 140.52468 20452 ft 427 kts 88°
2026-04-23 09:48 37.78245 140.56183 19702 ft 421 kts 88°
2026-04-23 09:48 37.78444 140.59773 19272 ft 407 kts 87°
2026-04-23 09:49 37.78739 140.63245 18986 ft 390 kts 77°
2026-04-23 09:49 37.79792 140.66328 18472 ft 379 kts 52°
2026-04-23 09:49 37.81647 140.68585 17786 ft 365 kts 26°
2026-04-23 09:49 37.83955 140.69648 17050 ft 345 kts 359°
2026-04-23 09:50 37.86281 140.69540 16418 ft 328 kts 345°
2026-04-23 09:50 37.88495 140.69055 15853 ft 319 kts 342°
2026-04-23 09:50 37.90647 140.68517 15311 ft 312 kts 342°
2026-04-23 09:50 37.92754 140.67975 14723 ft 307 kts 342°
2026-04-23 09:51 37.94837 140.67427 14126 ft 304 kts 341°
2026-04-23 09:51 37.96891 140.66873 13501 ft 300 kts 342°
2026-04-23 09:51 37.98920 140.66297 12800 ft 298 kts 342°
2026-04-23 09:51 38.00897 140.65700 12429 ft 286 kts 342°
2026-04-23 09:52 38.02779 140.65119 12195 ft 271 kts 342°
2026-04-23 09:52 38.04632 140.64884 11766 ft 271 kts
2026-04-23 09:52 38.06446 140.65693 10988 ft 287 kts 32°
2026-04-23 09:52 38.07821 140.67535 10539 ft 290 kts 60°
2026-04-23 09:53 38.08430 140.69944 10163 ft 288 kts 84°
2026-04-23 09:53 38.08604 140.72471 9777 ft 285 kts 87°
2026-04-23 09:53 38.08561 140.74972 9355 ft 282 kts 94°
2026-04-23 09:53 38.08444 140.77443 8867 ft 279 kts 94°
2026-04-23 09:54 38.08315 140.79847 8562 ft 265 kts 94°
2026-04-23 09:54 38.08124 140.82098 8355 ft 249 kts 104°
2026-04-23 09:54 38.07552 140.84090 8060 ft 239 kts 115°
2026-04-23 09:54 38.06840 140.86007 7663 ft 235 kts 116°
2026-04-23 09:55 38.06142 140.87814 7243 ft 229 kts 116°
2026-04-23 09:55 38.05436 140.89621 6700 ft 228 kts 116°
2026-04-23 09:55 38.04750 140.91432 6169 ft 227 kts 110°
2026-04-23 09:55 38.04424 140.93323 5906 ft 213 kts 93°
2026-04-23 09:56 38.04627 140.95114 5644 ft 202 kts 68°
2026-04-23 09:56 38.05411 140.96570 5251 ft 200 kts 49°
2026-04-23 09:56 38.06388 140.97829 4819 ft 201 kts 45°
2026-04-23 09:56 38.07413 140.98958 4574 ft 188 kts 38°
2026-04-23 09:57 38.08442 140.99863 4364 ft 171 kts 35°
2026-04-23 09:57 38.09394 141.00629 4177 ft 155 kts 31°
2026-04-23 09:57 38.10369 141.01153 3797 ft 154 kts 15°
2026-04-23 09:57 38.11450 141.01302 3302 ft 160 kts 356°
2026-04-23 09:58 38.12552 141.01004 2826 ft 164 kts 338°
2026-04-23 09:58 38.13549 141.00303 2382 ft 164 kts 321°
2026-04-23 09:58 38.14342 140.99272 1954 ft 163 kts 304°
2026-04-23 09:58 38.14758 140.97993 1579 ft 157 kts 277°
2026-04-23 09:59 38.14622 140.96633 1119 ft 159 kts 249°
2026-04-23 09:59 38.14366 140.95242 613 ft 161 kts 268°
2026-04-23 09:59 38.14278 140.93814 184 ft 163 kts 263°
2026-04-23 09:59 38.14138 140.92429 34 ft 151 kts 264°
2026-04-23 10:00 38.14025 140.91304 24 ft 102 kts 263°
2026-04-23 10:00 38.13957 140.90636 27 ft 50 kts 263°
2026-04-23 10:00 38.13843 140.90468 24 ft 23 kts 172°
2026-04-23 10:00 38.13787 140.90607 26 ft 23 kts 81°
2026-04-23 10:01 38.13809 140.90819 24 ft 25 kts 83°
2026-04-23 10:01 38.13833 140.91041 24 ft 26 kts 81°
2026-04-23 10:01 38.13856 140.91270 22 ft 27 kts 83°
2026-04-23 10:01 38.13880 140.91515 18 ft 29 kts 83°
2026-04-23 10:02 38.13907 140.91773 20 ft 29 kts 82°
2026-04-23 10:02 38.13934 140.92025 23 ft 29 kts 81°
2026-04-23 10:02 38.13961 140.92273 25 ft 28 kts 84°
2026-04-23 10:02 38.13986 140.92522 26 ft 29 kts 81°
2026-04-23 10:03 38.13996 140.92736 27 ft 8 kts 126°
2026-04-23 10:03 38.13958 140.92781 25 ft 7 kts 167°
2026-04-23 10:03 38.13904 140.92790 25 ft 8 kts 173°
2026-04-23 10:03 38.13898 140.92791 24 ft 0 kts 172°